COSMOS 1275 DEB, 18639

Orbit data source: Space-Track

COSMOS 1275 DEB, 18639 is space debris in LEO originally from a launch on Thu, 04 Jun 1981 UTC launched from the Plesetsk Missile And Space Complex (PKMTR). Debris objects in space refer to the collection of defunct objects orbiting the Earth. Examples of debris include non-operational satellites, rocket bodies, and fragments generated from explosions, collisions, or faulty payload assembly.

Loading next visibility...
Identifier
18639, 1981-053LZ
Orbit
LEO
Country
Flag of CISCIS
Related business
Manufacturer
Unknown
Mission
Spacecraft
Bus & Motor
Unknown
Mass
Unknown
Launch date (UTC)
1981-06-04 (44 years ago)
Launch vehicle
Unknown
Launch site
Plesetsk Missile And Space Complex (PKMTR)
Object type
Payload
Rocket body
Debris
Shape & HBR
Unknown shape, 0.1 m
Radar Cross Section
Small (<0.1 m²)

Expand to show TLE details & history
Last TLE update: 22 hours ago

TLE from 22 hours ago
0 COSMOS 1275 DEB
1 18639U 81053LZ  25288.83663352  .00001515  00000-0  16275-2 0  9990
2 18639  83.0592 315.4465 0145631 109.8883  70.8140 13.68425625  4850
Epoch: 2025-10-15T20:04Z
TLE epoch observation values (Epoch: 2025-10-15T20:04:45.136Z)
Latitude
-2.39988°
Longitude
169.94425°
Altitude
974.529 km
Speed
7.381 km/s
True Right ascension
09h 02m 56s
True Declination
-2° 23' 09"
Sunlit
Object was in daylight at epoch
Visualization orbit readout
Latitude
Unknown
Longitude
Unknown
Altitude
Unknown
Speed
Unknown
Apparent Right ascension
Unknown
Apparent Declination
Unknown
Sunlit
N/A
Visualization observer readout
Local Sidereal Time
13:11:04
Azimuth
Unknown
Elevation
Unknown
Doppler factor
Unknown
Orbital elements
Apogee altitude
1,109.864 km
Perigee altitude
894.898 km
Semi-major axis
7,380.518 km
Eccentricity
0.01456
Inclination
83.0592°
RAAN
315.4465°
Arg. of periapsis
109.8883°
True anomaly
72.3994°
Mean anomaly
70.814°
Eccentric anomaly
71.60577°
Mean motion
3.42305 °/min
Orbital period
105.17 mins
BSTAR
0.0016275
Loading maneuver chart data...
Computing Atmospheric mass density...

Documentation

Showing up to 5 results
|